Weather History for KBML - January, 2014

Change the Weather History Date:

Tuesday, January 7, 2014

  Actual Average Record
Temperature  
Mean Temperature 11 °F -  
Max Temperature 19 °F 23 °F 39 °F (2007)
Min Temperature 3 °F 3 °F -11 °F (2015)
Degree Days  
Heating Degree Days 54    
Moisture  
Dew Point -1 °F    
Average Humidity 61    
Maximum Humidity 81    
Minimum Humidity 38    
Precipitation  
Precipitation 0.00 in - - ()
Sea Level Pressure  
Sea Level Pressure 29.61 in    
Wind  
Wind Speed 10 mph (West)    
Max Wind Speed 17 mph    
Max Gust Speed 33 mph    
Visibility 6 miles    
Events Snow    
Averages and records for this station are not official NWS values.
T = Trace of Precipitation, MM = Missing Value Source: NWS Daily Summary

Daily Weather History Graph

Daily Weather History Graph

Search for Another Location

Airport or City:

Trip Planner

Search our weather history database for the weather conditions in past years. The results will help you decide how hot, cold, wet, or windy it might be!

Date:

Astronomy

Jan. 07, 2014 Rise Set
Actual Time 7:21 AM EST 4:21 PM EST
Civil Twilight 6:48 AM EST 4:54 PM EST
Nautical Twilight 6:11 AM EST 5:30 PM EST
Astronomical Twilight 5:36 AM EST 6:06 PM EST
Moon 10:50 AM EST (1/7) No Moon Set
Length of Visible Light 10h 06m
Length of Day
9h 00m
Waxing Crescent, 45% of the Moon is Illuminated
Jan 7
Waxing Crescent
Jan 7
First Quarter
Jan 15
Full
Jan 24
Last Quarter
Jan 30
New

Hourly Weather History & Observations

Time (EST) Temp. Windchill Dew Point Humidity Pressure Visibility Wind Dir Wind Speed Gust Speed Precip Events Conditions
12:52 AM 19.9 °F 11.1 °F 12.0 °F 71% 29.39 in 10.0 mi NW 6.9 mph - 0.00 in   Overcast
1:12 AM 19.9 °F 6.7 °F 12.0 °F 71% 29.35 in 3.0 mi NW 13.8 mph 19.6 mph 0.00 in Snow Light Snow
1:16 AM 19.0 °F 6.1 °F 12.0 °F 74% 29.36 in 1.8 mi NW 12.7 mph 21.9 mph 0.00 in Snow Light Snow
1:25 AM 19.0 °F 6.8 °F 12.0 °F 74% 29.35 in 1.2 mi NW 11.5 mph 19.6 mph 0.00 in Snow Light Snow
1:32 AM 19.0 °F 10.0 °F 12.0 °F 74% 29.35 in 1.5 mi Variable 6.9 mph 18.4 mph 0.00 in Snow Light Snow
1:52 AM 18.0 °F 9.8 °F 12.0 °F 78% 29.40 in 1.5 mi Variable 5.8 mph - 0.00 in Snow Light Snow
2:00 AM 18.0 °F 8.7 °F 12.0 °F 78% 29.37 in 1.2 mi Variable 6.9 mph - 0.00 in Snow Light Snow
2:09 AM 18.0 °F 8.7 °F 12.0 °F 78% 29.38 in 1.5 mi Variable 6.9 mph - 0.00 in Snow Light Snow
2:16 AM 18.0 °F 7.7 °F 12.9 °F 81% 29.38 in 0.8 mi WNW 8.1 mph - 0.00 in Snow Light Snow
2:26 AM 18.0 °F 4.8 °F 12.9 °F 81% 29.38 in 0.5 mi West 12.7 mph 21.9 mph 0.00 in Snow Snow
2:47 AM 17.6 °F 8.2 °F 10.4 °F 73% 29.39 in 1.0 mi Variable 6.9 mph 20.7 mph 0.00 in Snow Light Snow
2:52 AM 17.1 °F 4.3 °F 8.1 °F 68% 29.43 in 2.5 mi WNW 11.5 mph 18.4 mph 0.00 in Snow Light Snow
2:59 AM 17.1 °F 4.3 °F 6.1 °F 62% 29.39 in 8.0 mi West 11.5 mph 18.4 mph 0.00 in   Overcast
3:06 AM 16.0 °F 3.6 °F 5.0 °F 62% 29.40 in 10.0 mi West 10.4 mph 29.9 mph 0.00 in   Overcast
3:52 AM 12.9 °F -0.9 °F -0.0 °F 56% 29.48 in 8.0 mi WNW 11.5 mph 21.9 mph 0.00 in   Overcast
4:52 AM 12.0 °F 4.1 °F -2.0 °F 53% 29.51 in 10.0 mi NW 4.6 mph - N/A   Overcast
5:10 AM 12.0 °F -1.3 °F 1.0 °F 61% 29.47 in 2.5 mi NW 10.4 mph 21.9 mph 0.00 in Snow Light Snow
5:19 AM 10.9 °F -3.4 °F 3.0 °F 70% 29.47 in 1.8 mi NW 11.5 mph 18.4 mph 0.00 in Snow Light Snow
5:26 AM 10.9 °F 1.4 °F 3.9 °F 73% 29.48 in 2.5 mi Variable 5.8 mph - 0.00 in Snow Light Snow
5:37 AM 10.9 °F -2.6 °F 1.0 °F 64% 29.48 in 5.0 mi West 10.4 mph - 0.00 in Snow Light Snow
5:52 AM 10.0 °F -2.9 °F -2.9 °F 56% 29.55 in 9.0 mi WNW 9.2 mph 23.0 mph 0.00 in   Overcast
6:52 AM 9.0 °F -5.1 °F -6.0 °F 51% 29.59 in 9.0 mi West 10.4 mph 24.2 mph 0.00 in   Overcast
7:52 AM 8.1 °F -5.3 °F -5.1 °F 55% 29.62 in 10.0 mi WNW 9.2 mph 18.4 mph N/A   Overcast
8:52 AM 8.1 °F -6.2 °F -6.0 °F 53% 29.65 in 6.0 mi WNW 10.4 mph 32.2 mph 0.00 in   Haze
9:52 AM 9.0 °F -7.9 °F -9.0 °F 44% 29.68 in 7.0 mi West 15.0 mph 33.4 mph 0.00 in   Overcast
10:52 AM 8.1 °F -7.7 °F -9.0 °F 46% 29.70 in 8.0 mi West 12.7 mph 28.8 mph 0.00 in   Overcast
11:52 AM 8.1 °F -10.2 °F -9.0 °F 46% 29.70 in 10.0 mi WNW 17.3 mph 27.6 mph 0.00 in   Overcast
12:52 PM 8.1 °F -4.3 °F -9.9 °F 44% 29.71 in 10.0 mi WNW 8.1 mph 21.9 mph 0.00 in   Overcast
1:52 PM 8.1 °F -7.0 °F -13.0 °F 38% 29.73 in 10.0 mi West 11.5 mph 28.8 mph N/A   Mostly Cloudy
2:42 PM 7.0 °F -11.0 °F -5.1 °F 58% 29.69 in 1.5 mi WSW 16.1 mph 24.2 mph 0.00 in Snow Light Snow
2:47 PM 6.8 °F -7.8 °F -2.2 °F 67% 29.70 in 0.8 mi WSW 10.4 mph 24.2 mph 0.00 in Snow Light Snow
2:52 PM 7.0 °F -7.5 °F -2.0 °F 67% 29.78 in 0.8 mi West 10.4 mph 23.0 mph 0.00 in Snow Light Snow
3:01 PM 7.0 °F -8.3 °F -2.9 °F 64% 29.71 in 1.5 mi WSW 11.5 mph 25.3 mph 0.00 in Snow Light Snow
3:05 PM 7.0 °F -6.6 °F -4.0 °F 61% 29.71 in 3.0 mi West 9.2 mph 17.3 mph 0.00 in Snow Light Snow
3:15 PM 7.0 °F -7.5 °F -4.0 °F 61% 29.72 in 1.5 mi West 10.4 mph 21.9 mph 0.00 in Snow Light Snow
3:29 PM 7.0 °F -6.6 °F -5.1 °F 58% 29.72 in 3.0 mi West 9.2 mph 24.2 mph 0.00 in Snow Light Snow
3:47 PM 6.8 °F -2.0 °F -5.8 °F 56% 29.73 in 9.0 mi West 4.6 mph 18.4 mph 0.00 in   Overcast
3:52 PM 7.0 °F -8.3 °F -7.1 °F 53% 29.81 in 10.0 mi West 11.5 mph 19.6 mph 0.00 in   Overcast
4:52 PM 6.1 °F -8.7 °F -5.1 °F 60% 29.84 in 8.0 mi West 10.4 mph 17.3 mph 0.00 in   Overcast
5:52 PM 6.1 °F -9.5 °F -7.1 °F 55% 29.86 in 9.0 mi West 11.5 mph 20.7 mph N/A   Overcast
6:52 PM 5.0 °F -6.9 °F -11.0 °F 48% 29.89 in 10.0 mi Variable 6.9 mph - N/A   Mostly Cloudy
7:52 PM 3.9 °F -6.9 °F -11.9 °F 48% 29.92 in 10.0 mi Variable 5.8 mph 16.1 mph N/A   Scattered Clouds
8:52 PM 3.9 °F -10.4 °F -11.9 °F 48% 29.94 in 10.0 mi West 9.2 mph - N/A   Overcast
9:52 PM 3.9 °F -9.4 °F -11.0 °F 50% 29.95 in 10.0 mi WSW 8.1 mph - N/A   Overcast
10:52 PM 3.0 °F -11.5 °F -8.0 °F 60% 29.95 in 10.0 mi West 9.2 mph - N/A   Overcast
11:52 PM 3.9 °F -8.2 °F -8.0 °F 58% 29.97 in 10.0 mi Variable 6.9 mph 18.4 mph N/A   Overcast